Weather in Klyukvinka

Russia / Tomsk District     58°32′40″N   85°52′12″E
temp.,
°C
wind,
m/s
gust,
m/s
humid.,
%
clouds,
%
prec.,
mm/h
press.,
hPa
HPBL,
m
28 february, sun
sun2801:00−23sw4995100 0.1 1032469
04:00−24sw4995100 0.1 1032408
07:00−25sw4896100 0.1 1033349
10:00−26sw4796100 0.1 1034307
13:00−24sw3694100 0.1 1034351
16:00−21sw249199 0.0 1033499
19:00−24s129799 0.0 103220
22:00−27sse229833 0.0 103119
1 march, mon
mon101:00−28ese229818 0.0 102919
04:00−28e23980 0.0 102736
07:00−29ene36980 0.0 102596
10:00−25ene37969 0.0 1023220
13:00−20ene479343 0.0 1022327
16:00−17ne489154 0.0 1020440
19:00−20ne4119572 0.0 1020343
22:00−22ene4119686 0.0 1019334
2 march, tue
tue201:00−24ene4119576 0.0 1019269
04:00−26ne399649 0.0 1020229
07:00−28ne389729 0.0 1021183
10:00−25ene47941 0.0 1022240
13:00−19ene36910 0.0 1023344
16:00−16ene47870 0.0 1022498
19:00−20ene369635 0.0 1023115
22:00−23e310930 0.0 1023216
3 march, wed
wed301:00−25e38950 0.0 1022156
04:00−27e38960 0.0 1022171
07:00−27e310950 0.0 1023216
10:00−24e49880 0.0 1022326
13:00−18e48830 0.0 1023477
16:00−15e48820 0.0 1023562
19:00−19e38910 0.0 1024186
22:00−22ese310920 0.0 1025263
4 march, thu
thu401:00−24ese39940 0.0 1026215
04:00−26ese389516 0.0 1026217
07:00−24ese389653 0.1 1027264
10:00−23se379693 0.1 1027267
13:00−17se369396 0.1 1026365
16:00−13se4791100 0.0 1025525
19:00−13ese4993100 0.1 1024420
22:00−13se41193100 0.1 1022574